Air Force Academy, CO

6:49 AM MST on November 22, 2017 (GMT -0700)
Usaf Academy

Weather History for KAFF - September, 2012

Change the Weather History Date:

Friday, September 21, 2012

  Actual Average Record
Temperature  
Mean Temperature 58 °F -  
Max Temperature 76 °F 67 °F 85 °F (2015)
Min Temperature 41 °F 41 °F 30 °F (2000)
Degree Days  
Heating Degree Days 7    
Growing Degree Days 8 (Base 50)    
Moisture  
Dew Point 29 °F    
Average Humidity 39    
Maximum Humidity 66    
Minimum Humidity 15    
Precipitation  
Precipitation 0.00 in - - ()
Sea Level Pressure  
Sea Level Pressure 30.02 in    
Wind  
Wind Speed 10 mph (NNE)    
Max Wind Speed 16 mph    
Max Gust Speed 20 mph    
Visibility 10 miles    
Events      
Averages and records for this station are not official NWS values.
T = Trace of Precipitation, MM = Missing Value Source: NWS Daily Summary

Daily Weather History Graph

Daily Weather History Graph

Search for Another Location

Airport or City:

Trip Planner

Search our weather history database for the weather conditions in past years. The results will help you decide how hot, cold, wet, or windy it might be!

Date:

Astronomy

Sep. 21, 2012 Rise Set
Actual Time 6:46 AM MDT 6:57 PM MDT
Civil Twilight 6:19 AM MDT 7:23 PM MDT
Nautical Twilight 5:48 AM MDT 7:54 PM MDT
Astronomical Twilight 5:16 AM MDT 8:26 PM MDT
Moon 1:07 PM MDT (9/21) 11:03 PM MDT (9/21)
Length of Visible Light 13h 03m
Length of Day
12h 10m
Waxing Crescent, 38% of the Moon is Illuminated
Sep 21
Waxing Crescent
Sep 22
First Quarter
Sep 29
Full
Oct 8
Last Quarter
Oct 15
New

Hourly Weather History & Observations

Time (MDT) Temp. Windchill Dew Point Humidity Pressure Visibility Wind Dir Wind Speed Gust Speed Precip Events Conditions
12:55 AM 44.6 °F 39.7 °F 31.6 °F 60% 30.01 in 10.0 mi North 9.2 mph - N/A   Clear
1:55 AM 43.7 °F 37.7 °F 30.6 °F 60% 30.02 in 10.0 mi North 11.5 mph - N/A   Clear
2:55 AM 42.4 °F 36.5 °F 30.6 °F 63% 30.01 in 10.0 mi North 10.4 mph - N/A   Clear
3:55 AM 41.4 °F 35.2 °F 30.7 °F 66% 29.99 in 10.0 mi North 10.4 mph - N/A   Clear
4:55 AM 42.1 °F 35.7 °F 30.6 °F 64% 29.99 in 10.0 mi North 11.5 mph - N/A   Clear
5:55 AM 44.1 °F 40.1 °F 29.1 °F 56% 29.98 in 10.0 mi NE 6.9 mph - N/A   Clear
6:55 AM 43.3 °F 37.7 °F 29.8 °F 59% 30.00 in 10.0 mi North 10.4 mph - N/A   Clear
7:55 AM 50.5 °F - 30.2 °F 46% 30.01 in 10.0 mi North 9.2 mph - N/A   Clear
8:55 AM 61.9 °F - 29.8 °F 30% 30.02 in 10.0 mi NNE 12.7 mph - N/A   Clear
9:55 AM 66.0 °F - 27.5 °F 23% 30.04 in 10.0 mi North 16.1 mph - N/A   Clear
10:55 AM 70.3 °F - 27.3 °F 20% 30.04 in 10.0 mi North 13.8 mph - N/A   Clear
11:55 AM 73.4 °F - 26.8 °F 18% 30.01 in 10.0 mi North 15.0 mph - N/A   Clear
12:55 PM 74.5 °F - 27.1 °F 17% 30.02 in 10.0 mi NNE 9.2 mph 19.6 mph N/A   Clear
1:55 PM 75.0 °F - 26.4 °F 17% 30.01 in 10.0 mi NNE 6.9 mph - N/A   Clear
2:55 PM 75.2 °F - 25.0 °F 15% 29.99 in 10.0 mi Calm Calm - N/A   Clear
3:55 PM 75.6 °F - 27.1 °F 17% 29.97 in 10.0 mi NNE 10.4 mph - N/A   Clear
4:55 PM 74.1 °F - 27.1 °F 18% 29.98 in 10.0 mi East 11.5 mph - N/A   Clear
5:55 PM 72.3 °F - 27.0 °F 18% 30.00 in 10.0 mi East 8.1 mph - N/A   Clear
6:55 PM 67.6 °F - 28.2 °F 23% 30.02 in 10.0 mi ENE 4.6 mph - N/A   Clear
7:55 PM 57.4 °F - 31.3 °F 37% 30.05 in 10.0 mi NNW 5.8 mph - N/A   Clear
8:55 PM 54.1 °F - 31.8 °F 43% 30.05 in 10.0 mi North 5.8 mph - N/A   Clear
9:55 PM 51.3 °F - 31.1 °F 46% 30.06 in 10.0 mi NNW 6.9 mph - N/A   Clear
10:55 PM 48.4 °F - 31.6 °F 52% 30.06 in 10.0 mi North 8.1 mph - N/A   Clear
11:55 PM 46.6 °F - 31.5 °F 56% 30.07 in 10.0 mi North 9.2 mph - N/A   Clear